| time (UTC) | temp F | wind direction | speed knots | gust knots | rain 1hr in | rain 24hr in | rain mn in | humidity % | barometer mb |
| 20260505124522 | 37 | 220 | 6.1 | 8.7 | 0.00 | 0.00 | 0.00 | 85 | 1013.0 |
| 20260505123542 | 37 | 227 | 5.2 | 7.8 | 0.00 | 0.00 | 0.00 | 85 | 1012.8 |
| 20260505122519 | 36 | 220 | 5.2 | 8.7 | 0.00 | 0.00 | 0.00 | 86 | 1012.8 |
| 20260505121522 | 36 | 223 | 3.5 | 5.2 | 0.00 | 0.00 | 0.00 | 86 | 1012.9 |
| 20260505120522 | 36 | 253 | 3.5 | 5.2 | 0.00 | 0.00 | 0.00 | 86 | 1012.9 |
| 20260505115522 | 36 | 210 | 3.5 | 5.2 | 0.00 | 0.00 | 0.00 | 86 | 1012.7 |
| 20260505114527 | 35 | 169 | 1.7 | 3.5 | 0.00 | 0.00 | 0.00 | 86 | 1012.8 |
| 20260505113547 | 36 | 163 | 1.7 | 2.6 | 0.00 | 0.00 | 0.00 | 86 | 1012.6 |
| 20260505112547 | 36 | 163 | 1.7 | 3.5 | 0.00 | 0.00 | 0.00 | 86 | 1012.5 |
| 20260505111517 | 36 | 157 | 2.6 | 5.2 | 0.00 | 0.00 | 0.00 | 86 | 1012.7 |
| 20260505110543 | 37 | 195 | 3.5 | 4.3 | 0.00 | 0.00 | 0.00 | 85 | 1012.5 |
| 20260505101518 | 38 | 165 | 6.1 | 7.8 | 0.00 | 0.00 | 0.00 | 84 | 1012.8 |
| 20260505100558 | 38 | 171 | 6.1 | 8.7 | 0.00 | 0.00 | 0.00 | 83 | 1012.9 |
| 20260505095518 | 38 | 184 | 7.8 | 10.4 | 0.00 | 0.00 | 0.00 | 83 | 1013.0 |
| 20260505094559 | 38 | 185 | 7.0 | 9.6 | 0.00 | 0.00 | 0.00 | 83 | 1013.2 |
| 20260505093519 | 39 | 189 | 7.0 | 9.6 | 0.00 | 0.00 | 0.00 | 83 | 1013.1 |
| 20260505092519 | 39 | 191 | 7.8 | 12.2 | 0.00 | 0.00 | 0.00 | 82 | 1013.2 |
| 20260505091519 | 39 | 188 | 7.0 | 9.6 | 0.00 | 0.00 | 0.00 | 82 | 1013.1 |
| 20260505090519 | 39 | 176 | 7.8 | 11.3 | 0.00 | 0.00 | 0.00 | 82 | 1013.1 |
| 20260505085520 | 39 | 186 | 8.7 | 11.3 | 0.00 | 0.00 | 0.00 | 81 | 1013.2 |
| 20260505084537 | 39 | 188 | 6.1 | 8.7 | 0.00 | 0.00 | 0.00 | 81 | 1013.3 |
| 20260505083520 | 39 | 188 | 6.1 | 8.7 | 0.00 | 0.00 | 0.00 | 80 | 1013.4 |
| 20260505082520 | 40 | 188 | 5.2 | 7.0 | 0.00 | 0.00 | 0.00 | 79 | 1013.4 |
| 20260505081520 | 40 | 178 | 4.3 | 6.1 | 0.00 | 0.00 | 0.00 | 78 | 1013.4 |
| 20260505080521 | 40 | 180 | 4.3 | 7.0 | 0.00 | 0.00 | 0.00 | 76 | 1013.4 |
| 20260505075521 | 41 | 187 | 4.3 | 5.2 | 0.00 | 0.00 | 0.00 | 75 | 1013.6 |
| 20260505074541 | 41 | 197 | 4.3 | 5.2 | 0.00 | 0.00 | 0.00 | 72 | 1013.6 |
| 20260505073521 | 41 | 186 | 5.2 | 7.8 | 0.00 | 0.00 | 0.00 | 70 | 1013.5 |
| 20260505072521 | 41 | 161 | 3.5 | 5.2 | 0.00 | 0.00 | 0.00 | 70 | 1013.6 |
| 20260505071522 | 41 | 118 | 1.7 | 4.3 | 0.00 | 0.00 | 0.00 | 68 | 1013.6 |
| 20260505070519 | 41 | 155 | 3.5 | 4.3 | 0.00 | 0.00 | 0.00 | 73 | 1013.5 |
| 20260505065519 | 41 | 104 | 1.7 | 2.6 | 0.00 | 0.00 | 0.00 | 75 | 1013.6 |
| 20260505064519 | 42 | 162 | 2.6 | 3.5 | 0.00 | 0.00 | 0.00 | 75 | 1013.5 |
| 20260505063519 | 43 | 121 | 2.6 | 3.5 | 0.00 | 0.00 | 0.00 | 71 | 1013.4 |
| 20260505062519 | 43 | 205 | 0.0 | 1.7 | 0.00 | 0.00 | 0.00 | 72 | 1013.5 |
| 20260505061540 | 43 | 182 | 1.7 | 2.6 | 0.00 | 0.00 | 0.00 | 74 | 1013.3 |
| 20260505060540 | 44 | 75 | 1.7 | 2.6 | 0.00 | 0.00 | 0.00 | 69 | 1013.4 |
| 20260505055520 | 44 | 62 | 1.7 | 2.6 | 0.00 | 0.00 | 0.00 | 67 | 1013.3 |
| 20260505054540 | 44 | 345 | 0.9 | 2.6 | 0.00 | 0.00 | 0.00 | 68 | 1013.5 |
| 20260505053517 | 44 | 85 | 2.6 | 5.2 | 0.00 | 0.00 | 0.00 | 70 | 1013.4 |
| 20260505052543 | 43 | 65 | 3.5 | 4.3 | 0.00 | 0.00 | 0.00 | 72 | 1013.4 |
| 20260505051520 | 43 | 154 | 2.6 | 3.5 | 0.00 | 0.00 | 0.00 | 71 | 1013.4 |
| 20260505050518 | 44 | 173 | 3.5 | 4.3 | 0.00 | 0.00 | 0.00 | 72 | 1013.4 |
| 20260505041519 | 47 | 73 | 5.2 | 7.8 | 0.00 | 0.00 | 0.00 | 64 | 1013.0 |
| 20260505040522 | 47 | 101 | 2.6 | 3.5 | 0.00 | 0.00 | 0.00 | 62 | 1013.0 |
| 20260505035519 | 47 | 79 | 2.6 | 6.1 | 0.00 | 0.00 | 0.00 | 61 | 1013.0 |
| 20260505034519 | 48 | 79 | 3.5 | 6.1 | 0.00 | 0.00 | 0.00 | 60 | 1012.9 |
| 20260505033519 | 48 | 68 | 4.3 | 8.7 | 0.00 | 0.00 | 0.00 | 58 | 1012.8 |
| 20260505032519 | 48 | 51 | 6.1 | 8.7 | 0.00 | 0.00 | 0.00 | 62 | 1012.7 |
| 20260505031520 | 48 | 54 | 7.0 | 7.8 | 0.00 | 0.00 | 0.00 | 64 | 1012.6 |
| 20260505030520 | 48 | 58 | 6.1 | 7.8 | 0.00 | 0.00 | 0.00 | 58 | 1012.7 |
| 20260505025520 | 48 | 354 | 3.5 | 7.8 | 0.00 | 0.00 | 0.00 | 64 | 1012.7 |
| 20260505023523 | 48 | 0 | 0.9 | 2.6 | 0.00 | 0.00 | 0.00 | 58 | 1012.2 |
| 20260505022523 | 49 | 343 | 1.7 | 2.6 | 0.00 | 0.00 | 0.00 | 58 | 1012.0 |
| 20260505021524 | 50 | 329 | 0.9 | 1.7 | 0.00 | 0.00 | 0.00 | 52 | 1011.9 |
| 20260505020524 | 51 | 282 | 0.9 | 2.6 | 0.00 | 0.00 | 0.00 | 48 | 1011.7 |
| 20260505015524 | 52 | 333 | 0.9 | 1.7 | 0.00 | 0.00 | 0.00 | 47 | 1011.5 |
| 20260505014521 | 52 | 56 | 5.2 | 7.0 | 0.00 | 0.00 | 0.00 | 45 | 1011.4 |
| 20260505013518 | 53 | 41 | 7.0 | 13.0 | 0.00 | 0.00 | 0.00 | 45 | 1011.4 |
| 20260505012522 | 54 | 40 | 6.1 | 8.7 | 0.00 | 0.00 | 0.00 | 41 | 1011.3 |
| 20260505011522 | 54 | 35 | 5.2 | 7.8 | 0.00 | 0.00 | 0.00 | 42 | 1011.1 |
| 20260505010522 | 55 | 360 | 3.5 | 7.0 | 0.00 | 0.00 | 0.00 | 40 | 1011.1 |
| 20260505005525 | 56 | 334 | 1.7 | 2.6 | 0.00 | 0.00 | 0.00 | 35 | 1010.9 |
| 20260505004519 | 56 | 303 | 5.2 | 11.3 | 0.00 | 0.00 | 0.00 | 35 | 1010.9 |
| 20260505003542 | 56 | 296 | 5.2 | 7.0 | 0.00 | 0.00 | 0.00 | 36 | 1011.0 |
| 20260505002603 | 57 | 289 | 4.3 | 6.1 | 0.00 | 0.00 | 0.00 | 34 | 1010.9 |
| 20260505001523 | 57 | 276 | 4.3 | 5.2 | 0.00 | 0.00 | 0.00 | 33 | 1010.9 |
| 20260505000517 | 57 | 289 | 4.3 | 7.0 | 0.00 | 0.00 | 0.00 | 33 | 1010.9 |
| 20260504235517 | 57 | 311 | 2.6 | 6.1 | 0.00 | 0.00 | 0.00 | 32 | 1010.9 |
| 20260504234526 | 58 | 338 | 0.9 | 3.5 | 0.00 | 0.00 | 0.00 | 30 | 1011.0 |
| 20260504233526 | 58 | 261 | 0.9 | 2.6 | 0.00 | 0.00 | 0.00 | 31 | 1011.0 |
| 20260504232546 | 58 | 14 | 0.9 | 2.6 | 0.00 | 0.00 | 0.00 | 31 | 1011.1 |
| 20260504231518 | 58 | 350 | 3.5 | 5.2 | 0.00 | 0.00 | 0.00 | 31 | 1011.0 |
| 20260504230518 | 58 | 254 | 6.1 | 10.4 | 0.00 | 0.00 | 0.00 | 30 | 1010.9 |
| 20260504225518 | 58 | 252 | 4.3 | 7.8 | 0.00 | 0.00 | 0.00 | 31 | 1010.9 |
| 20260504224518 | 58 | 276 | 1.7 | 6.1 | 0.00 | 0.00 | 0.00 | 31 | 1010.9 |
| 20260504223518 | 57 | 259 | 4.3 | 7.0 | 0.00 | 0.00 | 0.00 | 32 | 1011.2 |
| 20260504222519 | 57 | 257 | 5.2 | 10.4 | 0.00 | 0.00 | 0.00 | 32 | 1011.3 |
| 20260504221539 | 57 | 284 | 3.5 | 6.1 | 0.00 | 0.00 | 0.00 | 33 | 1011.4 |
| 20260504220528 | 57 | 313 | 1.7 | 2.6 | 0.00 | 0.00 | 0.00 | 33 | 1011.5 |
| 20260504215548 | 56 | 328 | 2.6 | 4.3 | 0.00 | 0.00 | 0.00 | 34 | 1011.8 |
| 20260504214519 | 56 | 275 | 4.3 | 8.7 | 0.00 | 0.00 | 0.00 | 35 | 1011.9 |
| 20260504213540 | 56 | 266 | 5.2 | 9.6 | 0.00 | 0.00 | 0.00 | 35 | 1012.0 |
| 20260504212519 | 56 | 255 | 2.6 | 4.3 | 0.00 | 0.00 | 0.00 | 35 | 1012.1 |
| 20260504211520 | 56 | 282 | 2.6 | 5.2 | 0.00 | 0.00 | 0.00 | 35 | 1012.4 |
| 20260504210529 | 56 | 206 | 0.9 | 5.2 | 0.00 | 0.00 | 0.00 | 35 | 1012.6 |
| 20260504205540 | 56 | 351 | 3.5 | 5.2 | 0.00 | 0.00 | 0.00 | 36 | 1012.7 |
| 20260504204540 | 56 | 290 | 3.5 | 5.2 | 0.00 | 0.00 | 0.00 | 36 | 1012.9 |
| 20260504203540 | 56 | 299 | 4.3 | 7.8 | 0.00 | 0.00 | 0.00 | 36 | 1013.0 |
| 20260504202521 | 55 | 304 | 7.0 | 11.3 | 0.00 | 0.00 | 0.00 | 37 | 1013.2 |
| 20260504201518 | 55 | 300 | 7.0 | 10.4 | 0.00 | 0.00 | 0.00 | 37 | 1013.4 |
| 20260504200541 | 54 | 311 | 5.2 | 7.8 | 0.00 | 0.00 | 0.00 | 40 | 1013.6 |
| 20260504195518 | 54 | 300 | 7.0 | 9.6 | 0.00 | 0.00 | 0.00 | 41 | 1013.7 |
| 20260504194538 | 54 | 343 | 6.1 | 12.2 | 0.00 | 0.00 | 0.00 | 39 | 1013.6 |
| 20260504193519 | 55 | 10 | 6.1 | 10.4 | 0.00 | 0.00 | 0.00 | 34 | 1013.4 |
| 20260504192519 | 55 | 357 | 6.1 | 8.7 | 0.00 | 0.00 | 0.00 | 33 | 1013.5 |
| 20260504191519 | 55 | 359 | 6.1 | 9.6 | 0.00 | 0.00 | 0.00 | 32 | 1013.6 |
| 20260504190520 | 57 | 292 | 7.0 | 9.6 | 0.00 | 0.00 | 0.00 | 31 | 1013.5 |
| 20260504185520 | 58 | 326 | 6.1 | 9.6 | 0.00 | 0.00 | 0.00 | 29 | 1013.5 |
| 20260504184517 | 58 | 324 | 7.8 | 13.9 | 0.00 | 0.00 | 0.00 | 29 | 1013.6 |
| 20260504183537 | 57 | 323 | 6.1 | 10.4 | 0.00 | 0.00 | 0.00 | 29 | 1013.8 |
| 20260504182520 | 58 | 302 | 7.8 | 13.0 | 0.00 | 0.00 | 0.00 | 29 | 1013.9 |
| 20260504181538 | 58 | 294 | 9.6 | 16.5 | 0.00 | 0.00 | 0.00 | 27 | 1014.0 |
| 20260504180518 | 57 | 304 | 7.0 | 13.0 | 0.00 | 0.00 | 0.00 | 28 | 1014.1 |
| 20260504175538 | 57 | 300 | 7.8 | 12.2 | 0.00 | 0.00 | 0.00 | 29 | 1014.1 |
| 20260504174518 | 57 | 320 | 7.8 | 13.0 | 0.00 | 0.00 | 0.00 | 30 | 1014.2 |
| 20260504173558 | 56 | 293 | 9.6 | 17.4 | 0.00 | 0.00 | 0.00 | 30 | 1014.2 |
| 20260504172522 | 56 | 327 | 7.8 | 11.3 | 0.00 | 0.00 | 0.00 | 30 | 1014.4 |
| 20260504171539 | 56 | 326 | 7.0 | 10.4 | 0.00 | 0.00 | 0.00 | 32 | 1014.5 |
| 20260504170539 | 55 | 311 | 7.0 | 11.3 | 0.00 | 0.00 | 0.00 | 33 | 1014.5 |
| 20260504150521 | 51 | 349 | 5.2 | 8.7 | 0.00 | 0.00 | 0.00 | 43 | 1015.9 |
| 20260504140519 | 50 | 358 | 5.2 | 8.7 | 0.00 | 0.00 | 0.00 | 48 | 1015.6 |
| 20260504130517 | 43 | 260 | 3.5 | 6.1 | 0.00 | 0.00 | 0.00 | 64 | 1015.3 |